Milan, NH

12:22 PM EST on February 12, 2016 (GMT -0500)
Berlin Municipal

Weather History for KBML - January, 2011

Change the Weather History Date:

Sunday, January 2, 2011

  Actual Average Record
Temperature  
Mean Temperature 35 °F -  
Max Temperature 42 °F 25 °F 42 °F (2011)
Min Temperature 28 °F 5 °F -15 °F (2009)
Degree Days  
Heating Degree Days 30    
Moisture  
Dew Point 35 °F    
Average Humidity 95    
Maximum Humidity 100    
Minimum Humidity 72    
Precipitation  
Precipitation 0.06 in - - ()
Sea Level Pressure  
Sea Level Pressure 29.88 in    
Wind  
Wind Speed 1 mph (NW)    
Max Wind Speed 8 mph    
Max Gust Speed -    
Visibility 3 miles    
Events Fog , Rain    
Averages and records for this station are not official NWS values.
T = Trace of Precipitation, MM = Missing Value Source: NWS Daily Summary

Daily Weather History Graph

Daily Weather History Graph

Search for Another Location

Airport or City:

Trip Planner

Search our weather history database for the weather conditions in past years. The results will help you decide how hot, cold, wet, or windy it might be!

Date:

Astronomy

Jan. 02, 2011 Rise Set
Actual Time 7:21 AM EST 4:16 PM EST
Civil Twilight 6:48 AM EST 4:49 PM EST
Nautical Twilight 6:11 AM EST 5:26 PM EST
Astronomical Twilight 5:36 AM EST 6:01 PM EST
Moon 5:54 AM EST (1/2) 2:42 PM EST (1/2)
Length of Visible Light 10h 01m
Length of Day
8h 54m
Waning Crescent, 3% of the Moon is Illuminated
Jan 2
Waning Crescent
Jan 4
New
Jan 12
First Quarter
Jan 19
Full
Jan 26
Last Quarter

Hourly Weather History & Observations

Time (EST) Temp. Windchill Dew Point Humidity Pressure Visibility Wind Dir Wind Speed Gust Speed Precip Events Conditions
12:47 AM 37.4 °F - 35.6 °F 93% 29.89 in 2.5 mi Calm Calm - 0.00 in Rain Light Rain
12:50 AM 37.4 °F - 35.6 °F 93% 29.89 in 1.2 mi Calm Calm - 0.00 in Rain Light Rain
12:52 AM 37.0 °F - 36.0 °F 96% 29.92 in 1.0 mi Calm Calm - 0.00 in Rain Light Rain
12:59 AM 35.6 °F - 35.6 °F 100% 29.89 in 0.5 mi Calm Calm - 0.00 in Fog , Rain Light Rain
1:15 AM 37.4 °F 34.9 °F 35.6 °F 93% 29.88 in 1.2 mi NNW 3.5 mph - 0.01 in Rain Light Rain
1:21 AM 37.4 °F - 37.4 °F 100% 29.88 in 2.0 mi Calm Calm - 0.01 in Rain Light Rain
1:31 AM 35.6 °F - 35.6 °F 100% 29.88 in 1.2 mi Calm Calm - 0.01 in Rain Light Rain
1:39 AM 37.4 °F - 35.6 °F 93% 29.88 in 1.5 mi Calm Calm - 0.01 in Rain Light Rain
1:44 AM 37.4 °F - 37.4 °F 100% 29.89 in 3.0 mi Calm Calm - 0.01 in Rain Light Rain
1:46 AM 37.4 °F - 37.4 °F 100% 29.89 in 1.8 mi Calm Calm - 0.01 in Rain Light Rain
1:50 AM 35.6 °F 32.8 °F 35.6 °F 100% 29.89 in 0.8 mi ESE 3.5 mph - 0.01 in Rain Light Rain
1:52 AM 36.0 °F - 35.1 °F 97% 29.92 in 0.8 mi Calm Calm - 0.01 in Rain Light Rain
2:18 AM 35.6 °F - 35.6 °F 100% 29.89 in 0.5 mi Calm Calm - 0.00 in Fog Fog
2:52 AM 35.1 °F - 35.1 °F 100% 29.93 in 0.5 mi Calm Calm - 0.00 in Fog Fog
2:59 AM 35.6 °F - 35.6 °F 100% 29.89 in 0.2 mi Calm Calm - N/A Fog Fog
3:06 AM 35.6 °F - 35.6 °F 100% 29.88 in 0.5 mi Calm Calm - N/A Fog Fog
3:43 AM 35.6 °F - 35.6 °F 100% 29.86 in 0.5 mi Calm Calm - N/A Fog Fog
3:52 AM 35.1 °F - 35.1 °F 100% 29.91 in 0.5 mi Calm Calm - N/A Fog Fog
3:56 AM 35.6 °F - 35.6 °F 100% 29.87 in 0.2 mi Calm Calm - N/A Fog Fog
4:17 AM 35.6 °F - 35.6 °F 100% 29.86 in 0.5 mi Calm Calm - N/A Fog Fog
4:27 AM 33.8 °F - 33.8 °F 100% 29.86 in 0.5 mi Calm Calm - N/A Fog Fog
4:41 AM 35.6 °F - 35.6 °F 100% 29.85 in 0.2 mi Calm Calm - N/A Fog Fog
4:48 AM 35.6 °F - 35.6 °F 100% 29.86 in 0.5 mi Calm Calm - N/A Fog Fog
4:49 AM 35.1 °F - 35.1 °F 100% 29.90 in 0.5 mi Calm Calm - N/A Fog Fog
5:24 AM 35.6 °F - 35.6 °F 100% 29.87 in 0.5 mi Calm Calm - 0.00 in Fog , Rain Light Rain
5:45 AM 33.8 °F - 33.8 °F 100% 29.86 in 0.5 mi Calm Calm - 0.00 in Fog Fog
5:52 AM 34.0 °F - 34.0 °F 100% 29.90 in 0.2 mi Calm Calm - 0.00 in Fog , Rain Light Rain
6:00 AM 33.8 °F - 33.8 °F 100% 29.86 in 0.5 mi Calm Calm - 0.00 in Fog , Rain Light Rain
6:13 AM 35.6 °F - 35.6 °F 100% 29.86 in 0.5 mi Calm Calm - 0.00 in Fog , Rain Light Rain
6:21 AM 33.8 °F - 33.8 °F 100% 29.86 in 0.5 mi Calm Calm - 0.00 in Fog , Rain Light Rain
6:33 AM 35.6 °F - 33.8 °F 93% 29.86 in 0.5 mi Calm Calm - 0.00 in Fog Fog
6:52 AM 35.1 °F - 35.1 °F 100% 29.90 in 0.5 mi Calm Calm - 0.00 in Fog Fog
7:25 AM 35.6 °F 31.7 °F 33.8 °F 93% 29.87 in 1.0 mi West 4.6 mph - 0.00 in Rain Light Rain
7:35 AM 33.8 °F - 33.8 °F 100% 29.87 in 0.8 mi Calm Calm - 0.00 in   Overcast
7:45 AM 33.8 °F - 33.8 °F 100% 29.88 in 0.8 mi Calm Calm - 0.00 in   Overcast
7:52 AM 35.1 °F - 34.0 °F 96% 29.94 in 0.8 mi Calm Calm - 0.00 in Rain Light Rain
8:22 AM 35.6 °F - 33.8 °F 93% 29.90 in 0.2 mi Calm Calm - 0.03 in Fog , Rain Light Rain
8:45 AM 35.6 °F - 35.6 °F 100% 29.92 in 0.8 mi Calm Calm - 0.03 in   Overcast
8:52 AM 36.0 °F 33.3 °F 35.1 °F 97% 29.96 in 0.5 mi NW 3.5 mph - 0.03 in Fog Fog
9:12 AM 35.6 °F - 35.6 °F 100% 29.92 in 0.8 mi Calm Calm - 0.01 in Rain Light Rain
9:24 AM 37.4 °F - 35.6 °F 93% 29.93 in 0.5 mi Calm Calm - 0.01 in Fog , Rain Light Rain
9:36 AM 37.4 °F - 37.4 °F 100% 29.92 in 1.5 mi Calm Calm - 0.01 in Rain Light Rain
9:45 AM 35.6 °F - 35.6 °F 100% 29.92 in 0.8 mi Calm Calm - 0.01 in   Overcast
9:52 AM 36.0 °F 33.3 °F 35.1 °F 97% 29.96 in 0.2 mi South 3.5 mph - 0.02 in Fog , Rain Light Rain
10:35 AM 39.2 °F - 37.4 °F 93% 29.87 in 1.0 mi Calm Calm - 0.00 in   Overcast
10:42 AM 39.2 °F - 39.2 °F 100% 29.85 in 2.0 mi Calm Calm - 0.00 in   Mostly Cloudy
10:48 AM 39.2 °F 37.0 °F 39.2 °F 100% 29.86 in 3.0 mi SW 3.5 mph - 0.00 in   Mostly Cloudy
10:49 AM 39.9 °F 37.8 °F 39.0 °F 97% 29.89 in 3.0 mi SW 3.5 mph - 0.00 in   Mostly Cloudy
11:39 AM 41.0 °F 39.0 °F 39.2 °F 93% 29.85 in 7.0 mi NNW 3.5 mph - N/A   Overcast
11:52 AM 41.0 °F - 39.0 °F 93% 29.88 in 8.0 mi Calm Calm - N/A   Overcast
12:04 PM 41.0 °F - 39.2 °F 93% 29.85 in 8.0 mi Calm Calm - N/A   Overcast
12:52 PM 42.1 °F - 39.0 °F 89% 29.86 in 10.0 mi Calm Calm - N/A   Overcast
1:14 PM 42.8 °F - 39.2 °F 87% 29.82 in 9.0 mi Calm Calm - N/A   Overcast
1:39 PM 41.0 °F - 39.2 °F 93% 29.82 in 7.0 mi Calm Calm - N/A   Overcast
1:52 PM 39.9 °F - 39.0 °F 97% 29.85 in 5.0 mi Calm Calm - N/A   Overcast
2:16 PM 39.2 °F - 37.4 °F 93% 29.82 in 8.0 mi Calm Calm - N/A   Overcast
2:39 PM 39.2 °F - 37.4 °F 93% 29.82 in 8.0 mi Calm Calm - N/A   Overcast
2:52 PM 39.9 °F 35.8 °F 35.1 °F 83% 29.86 in 10.0 mi NNW 5.8 mph - N/A   Overcast
3:43 PM 37.4 °F 33.8 °F 33.8 °F 87% 29.81 in 10.0 mi North 4.6 mph - N/A   Overcast
3:52 PM 37.9 °F 32.1 °F 34.0 °F 86% 29.84 in 10.0 mi NNW 8.1 mph - N/A   Overcast
4:26 PM 37.4 °F 32.8 °F 33.8 °F 87% 29.81 in 10.0 mi NNW 5.8 mph - N/A   Overcast
4:52 PM 37.0 °F 31.6 °F 32.0 °F 82% 29.85 in 10.0 mi NNW 6.9 mph - N/A   Overcast
5:52 PM 35.1 °F 30.1 °F 30.9 °F 85% 29.85 in 10.0 mi North 5.8 mph - N/A   Overcast
6:52 PM 35.1 °F 32.2 °F 30.9 °F 85% 29.86 in 10.0 mi NNW 3.5 mph - N/A   Overcast
7:22 PM 33.8 °F 27.7 °F 30.2 °F 87% 29.81 in 10.0 mi NNW 6.9 mph - N/A   Overcast
7:52 PM 33.1 °F 28.7 °F 28.9 °F 85% 29.85 in 10.0 mi NNW 4.6 mph - N/A   Overcast
8:52 PM 32.0 °F 26.4 °F 26.1 °F 79% 29.88 in 5.0 mi NNW 5.8 mph - N/A   Haze
9:52 PM 30.0 °F 22.4 °F 24.1 °F 79% 29.88 in 9.0 mi NW 8.1 mph - 0.00 in   Overcast
10:52 PM 28.9 °F 21.9 °F 21.9 °F 75% 29.86 in 10.0 mi NNW 6.9 mph - N/A   Overcast
11:52 PM 28.0 °F 20.8 °F 19.9 °F 72% 29.87 in 10.0 mi Variable 6.9 mph - N/A   Overcast